Total_Precipitation_Accumulation
0.41 0.36 0.36 0.33 0.23 0.23 0.23 0.42 0.79 0.79 0.37 0.14 0.05 0.01 0.01 0.01 0.02 0.03 0.03 0.02 0.01 -0.01 -0.01 -0.01 -0.01 -0.01 -0.01 -0.01 -0.01 -0.01 -0.01 -0.01 -0.03 -0.04 -0.04 -0.00 -0.00 -0.01 -0.01 -0.07 -0.03 0.00 0.00 0.00 -0.00 -0.00 -0.01 -0.02 -0.04 -0.04 -0.08 -0.04 -0.07 -0.07 -0.07 -0.07 -0.13 -0.16 -0.16 -0.19 -0.11 -0.20 -0.20 -0.28 -0.23 -0.23 -0.24 -0.20 -0.22
1.00 0.95 0.95 0.59 0.50 0.50 0.41 0.41 0.74 0.74 0.75 0.33 0.10 0.04 0.04 0.03 0.02 0.02 0.02 0.01 0.00 -0.00 -0.00 -0.01 -0.01 -0.01 -0.01 -0.00 -0.01 -0.01 -0.01 -0.04 -0.03 -0.02 -0.02 0.00 0.00 -0.05 -0.05 0.00 0.00 -0.01 -0.01 -0.02 -0.02 -0.02 -0.05 -0.04 -0.12 -0.12 -0.10 -0.07 -0.08 -0.09 -0.09 -0.07 -0.10 -0.12 -0.12 -0.12 -0.08 -0.12 -0.12 -0.18 -0.22 -0.22 -0.22 -0.20 -0.21
0.59 0.70 0.70 0.53 0.36 0.36 0.23 0.15 0.23 0.23 0.50 0.37 0.15 0.07 0.07 0.05 0.04 0.02 0.02 0.01 0.01 0.01 0.01 0.00 -0.00 -0.00 -0.00 -0.01 -0.02 -0.02 -0.02 -0.03 -0.02 -0.00 -0.00 0.00 -0.02 -0.05 -0.05 0.01 0.01 -0.03 -0.03 -0.03 -0.04 -0.04 -0.06 -0.07 -0.15 -0.15 -0.18 -0.16 -0.16 -0.13 -0.13 -0.08 -0.10 -0.11 -0.11 -0.09 -0.11 -0.10 -0.10 -0.14 -0.15 -0.15 -0.18 -0.19 -0.15
0.13 0.16 0.16 0.18 0.11 0.11 0.05 0.01 0.00 0.00 0.11 0.17 0.20 0.13 0.13 0.08 0.04 0.03 0.03 0.02 0.03 0.04 0.04 0.02 0.01 0.00 0.00 -0.02 0.01 0.01 -0.04 -0.01 -0.01 -0.01 -0.01 -0.00 -0.03 -0.05 -0.05 0.01 0.01 0.00 0.00 -0.05 -0.05 -0.05 -0.06 -0.10 -0.14 -0.14 -0.22 -0.21 -0.23 -0.22 -0.22 -0.16 -0.15 -0.16 -0.16 -0.16 -0.17 -0.14 -0.14 -0.14 -0.13 -0.13 -0.12 -0.12 -0.13
0.14 0.15 0.15 0.05 0.03 0.03 0.02 0.01 0.01 0.01 0.06 0.09 0.16 0.13 0.13 0.07 0.03 0.02 0.02 0.02 0.02 0.02 0.02 0.02 0.02 0.02 0.02 0.01 -0.01 -0.01 -0.01 0.00 0.00 0.00 0.00 0.00 -0.01 -0.03 -0.03 0.00 0.00 0.00 0.00 -0.02 -0.07 -0.07 -0.09 -0.09 -0.14 -0.14 -0.19 -0.21 -0.21 -0.21 -0.21 -0.19 -0.20 -0.16 -0.16 -0.17 -0.18 -0.19 -0.19 -0.18 -0.13 -0.13 -0.12 -0.09 -0.22
0.03 0.05 0.05 0.01 0.00 0.00 0.00 0.00 0.00 0.00 0.01 0.06 0.06 0.05 0.05 0.05 0.03 0.02 0.02 0.02 0.01 0.02 0.02 0.01 0.02 0.02 0.02 0.01 0.01 0.01 0.00 0.00 0.01 0.01 0.01 0.01 0.02 0.02 0.02 0.01 0.00 0.00 0.00 0.00 -0.06 -0.06 -0.04 -0.06 -0.08 -0.08 -0.09 -0.16 -0.18 -0.18 -0.18 -0.20 -0.22 -0.19 -0.19 -0.17 -0.17 -0.20 -0.20 -0.19 -0.21 -0.21 -0.20 -0.21 -0.26
0.00 0.00 0.00 0.00 0.00 0.00 0.00 0.00 0.00 0.00 0.00 0.03 0.04 0.02 0.02 0.01 0.02 0.01 0.01 0.00 0.01 0.02 0.02 0.01 0.02 0.01 0.01 0.01 0.01 0.01 0.00 0.01 0.01 0.01 0.01 0.01 0.01 0.01 0.01 0.00 0.00 0.00 0.00 0.01 -0.02 -0.02 -0.04 -0.07 -0.13 -0.13 -0.11 -0.12 -0.13 -0.16 -0.16 -0.17 -0.18 -0.14 -0.14 -0.11 -0.11 -0.14 -0.14 -0.16 -0.18 -0.18 -0.24 -0.26 -0.22
0.01 0.00 0.00 0.00 0.00 0.00 0.00 0.00 0.00 0.00 0.01 0.01 0.02 0.02 0.02 0.02 0.03 0.01 0.01 0.01 0.01 0.00 0.00 -0.00 0.01 0.01 0.01 0.02 0.02 0.02 -0.00 0.01 0.01 0.01 0.01 0.01 -0.00 -0.00 -0.00 -0.00 -0.00 -0.00 -0.00 -0.01 -0.02 -0.02 -0.04 -0.06 -0.07 -0.07 -0.07 -0.07 -0.09 -0.10 -0.10 -0.11 -0.12 -0.10 -0.10 -0.14 -0.16 -0.16 -0.16 -0.18 -0.19 -0.19 -0.18 -0.22 -0.14
0.00 0.00 0.00 0.00 0.00 0.00 0.00 0.00 0.01 0.01 0.01 0.01 0.01 0.01 0.01 0.02 0.01 0.02 0.02 0.02 0.01 0.00 0.00 0.02 0.02 0.04 0.04 0.03 0.02 0.02 0.00 0.02 0.01 0.01 0.01 -0.00 -0.00 -0.00 -0.00 -0.01 -0.01 -0.01 -0.01 -0.02 -0.02 -0.02 -0.03 -0.03 -0.03 -0.03 -0.03 -0.03 -0.04 -0.04 -0.04 -0.06 -0.07 -0.08 -0.08 -0.07 -0.06 -0.05 -0.05 -0.08 -0.10 -0.10 -0.11 -0.06 -0.10
0.00 0.00 0.00 0.00 0.00 0.00 0.00 0.00 0.01 0.01 0.01 0.01 0.01 0.01 0.01 0.01 0.01 0.01 0.01 0.02 0.04 0.03 0.03 0.02 0.06 0.06 0.06 0.02 0.01 0.01 0.00 0.02 0.02 0.01 0.01 0.00 -0.00 -0.00 -0.00 -0.01 -0.01 -0.01 -0.01 -0.02 -0.01 -0.01 -0.02 -0.02 -0.02 -0.02 -0.02 -0.01 -0.02 -0.05 -0.05 -0.06 -0.06 -0.09 -0.09 -0.09 -0.09 -0.04 -0.04 -0.03 -0.03 -0.03 -0.03 -0.03 -0.03
0.00 0.00 0.00 0.00 0.00 0.00 0.00 0.00 0.00 0.00 0.01 0.01 0.01 0.00 0.00 0.00 0.00 0.00 0.00 0.05 0.07 0.04 0.04 0.01 0.08 0.06 0.06 0.01 -0.00 -0.00 0.01 0.01 0.00 0.00 0.00 0.00 -0.00 -0.00 -0.00 -0.01 -0.01 -0.01 -0.01 -0.02 -0.02 -0.02 -0.02 -0.02 -0.01 -0.01 -0.01 -0.01 -0.01 -0.02 -0.02 -0.05 -0.07 -0.08 -0.08 -0.08 -0.09 -0.07 -0.07 -0.05 -0.04 -0.04 -0.04 -0.04 -0.05
0.00 0.00 0.00 0.00 0.00 0.00 0.00 0.00 0.00 0.00 0.00 0.00 0.00 0.00 0.00 0.00 0.00 0.00 0.00 0.06 0.06 0.03 0.03 0.01 0.06 0.03 0.03 -0.00 -0.00 -0.00 -0.00 0.00 -0.00 -0.00 -0.00 -0.00 -0.00 -0.01 -0.01 -0.01 -0.01 -0.01 -0.01 -0.02 -0.02 -0.02 -0.02 -0.02 -0.02 -0.02 -0.02 -0.02 -0.02 -0.03 -0.03 -0.05 -0.07 -0.07 -0.07 -0.08 -0.08 -0.07 -0.07 -0.07 -0.06 -0.06 -0.05 -0.06 -0.07
0.00 0.00 0.00 0.00 0.00 0.00 0.00 0.00 0.00 0.00 0.00 0.00 0.00 0.00 0.00 0.00 0.00 0.00 0.00 0.04 0.03 0.01 0.01 0.00 0.01 0.01 0.01 -0.00 -0.00 -0.00 -0.00 -0.00 -0.01 -0.01 -0.01 -0.01 -0.02 -0.02 -0.02 -0.02 -0.02 -0.02 -0.02 -0.02 -0.02 -0.02 -0.02 -0.03 -0.03 -0.03 -0.03 -0.04 -0.05 -0.06 -0.06 -0.06 -0.07 -0.07 -0.07 -0.07 -0.07 -0.07 -0.07 -0.07 -0.05 -0.05 -0.08 -0.08 -0.09
0.00 0.00 0.00 0.00 0.00 0.00 0.00 0.00 0.00 0.00 0.00 0.00 0.00 0.00 0.00 0.00 0.00 0.00 0.00 0.00 0.00 0.00 0.00 0.00 0.00 -0.00 -0.00 -0.00 -0.00 -0.00 -0.00 -0.00 -0.00 -0.02 -0.02 -0.02 -0.02 -0.02 -0.02 -0.02 -0.02 -0.02 -0.02 -0.02 -0.02 -0.02 -0.03 -0.04 -0.05 -0.05 -0.06 -0.06 -0.07 -0.07 -0.07 -0.06 -0.06 -0.08 -0.08 -0.08 -0.08 -0.08 -0.08 -0.08 -0.08 -0.08 -0.14 -0.12 -0.12
0.00 0.00 0.00 0.00 0.00 0.00 0.00 0.00 0.00 0.00 0.00 0.00 0.00 0.00 0.00 0.00 -0.00 -0.00 -0.00 -0.00 -0.00 -0.00 -0.00 -0.00 0.00 -0.00 -0.00 -0.00 -0.00 -0.00 -0.00 -0.01 -0.01 -0.02 -0.02 -0.02 -0.02 -0.02 -0.02 -0.02 -0.02 -0.02 -0.02 -0.03 -0.03 -0.03 -0.05 -0.04 -0.05 -0.05 -0.07 -0.07 -0.07 -0.07 -0.07 -0.06 -0.07 -0.07 -0.07 -0.08 -0.10 -0.13 -0.13 -0.12 -0.12 -0.12 -0.15 -0.16 -0.18
0.00 0.00 0.00 0.00 0.00 0.00 0.00 0.00 0.00 0.00 0.00 0.00 0.00 -0.00 -0.00 -0.00 -0.00 -0.00 -0.00 -0.00 -0.00 -0.00 -0.00 -0.00 -0.00 -0.00 -0.00 -0.00 -0.01 -0.01 -0.01 -0.01 -0.01 -0.01 -0.01 -0.02 -0.01 -0.02 -0.02 -0.02 -0.02 -0.03 -0.03 -0.03 -0.04 -0.04 -0.05 -0.06 -0.06 -0.06 -0.06 -0.07 -0.06 -0.06 -0.06 -0.07 -0.08 -0.08 -0.08 -0.08 -0.10 -0.12 -0.12 -0.13 -0.13 -0.13 -0.13 -0.13 -0.15
0.00 0.00 0.00 0.00 0.00 0.00 0.00 0.00 0.00 0.00 0.00 0.00 -0.00 -0.00 -0.00 -0.00 -0.00 -0.00 -0.00 -0.00 -0.00 -0.00 -0.00 -0.00 -0.00 -0.01 -0.01 -0.01 -0.01 -0.01 -0.01 -0.01 -0.01 -0.01 -0.01 -0.02 -0.02 -0.02 -0.02 -0.03 -0.03 -0.04 -0.04 -0.05 -0.06 -0.06 -0.06 -0.07 -0.07 -0.07 -0.07 -0.06 -0.06 -0.08 -0.08 -0.09 -0.09 -0.10 -0.10 -0.11 -0.12 -0.13 -0.13 -0.14 -0.14 -0.14 -0.14 -0.14 -0.14
0.00 0.00 0.00 0.00 0.00 0.00 0.00 0.00 0.00 0.00 -0.00 -0.00 -0.00 -0.00 -0.00 -0.00 -0.00 -0.00 -0.00 -0.00 -0.00 -0.00 -0.00 -0.00 -0.00 -0.00 -0.00 -0.01 -0.01 -0.01 -0.01 -0.00 -0.00 -0.01 -0.01 -0.01 -0.02 -0.03 -0.03 -0.02 -0.04 -0.04 -0.04 -0.03 -0.04 -0.04 -0.04 -0.04 -0.05 -0.05 -0.06 -0.07 -0.11 -0.12 -0.12 -0.11 -0.12 -0.14 -0.14 -0.14 -0.13 -0.12 -0.12 -0.11 -0.14 -0.14 -0.15 -0.16 -0.19
0.00 0.00 0.00 0.00 0.00 0.00 0.00 0.00 -0.00 -0.00 -0.00 -0.00 -0.00 -0.00 -0.00 -0.00 -0.00 -0.00 -0.00 -0.00 -0.00 -0.00 -0.00 -0.01 -0.01 -0.01 -0.01 -0.01 -0.01 -0.01 -0.01 -0.01 -0.01 -0.01 -0.01 -0.01 -0.02 -0.02 -0.02 -0.03 -0.05 -0.05 -0.05 -0.06 -0.06 -0.06 -0.07 -0.08 -0.09 -0.09 -0.10 -0.12 -0.13 -0.14 -0.14 -0.13 -0.13 -0.13 -0.13 -0.15 -0.14 -0.14 -0.14 -0.16 -0.23 -0.23 -0.24 -0.25 -0.25
0.00 0.00 0.00 0.00 -0.00 -0.00 0.00 -0.00 -0.00 -0.00 -0.00 -0.00 -0.00 -0.00 -0.00 -0.00 -0.00 -0.01 -0.01 -0.01 -0.00 -0.00 -0.00 -0.00 -0.01 -0.00 -0.00 -0.00 -0.01 -0.01 -0.00 -0.01 -0.01 -0.01 -0.01 -0.01 -0.02 -0.02 -0.02 -0.02 -0.02 -0.03 -0.03 -0.05 -0.07 -0.07 -0.10 -0.11 -0.12 -0.12 -0.13 -0.13 -0.13 -0.13 -0.13 -0.12 -0.12 -0.12 -0.12 -0.12 -0.14 -0.16 -0.16 -0.16 -0.18 -0.18 -0.17 -0.20 -0.23
-0.00 -0.00 -0.00 -0.00 -0.00 -0.00 -0.00 -0.00 -0.00 -0.00 -0.00 -0.00 -0.00 -0.00 -0.00 -0.01 -0.01 -0.01 -0.01 -0.01 -0.01 -0.01 -0.01 -0.01 -0.01 -0.01 -0.01 -0.01 -0.01 -0.01 -0.01 -0.01 -0.01 -0.01 -0.01 -0.01 -0.02 -0.01 -0.01 -0.02 -0.03 -0.06 -0.06 -0.08 -0.11 -0.11 -0.12 -0.13 -0.14 -0.14 -0.13 -0.11 -0.11 -0.10 -0.10 -0.10 -0.11 -0.11 -0.11 -0.12 -0.13 -0.14 -0.14 -0.17 -0.17 -0.17 -0.17 -0.14 -0.13
-0.00 -0.00 -0.00 -0.00 -0.00 -0.00 -0.00 -0.00 -0.00 -0.00 -0.00 -0.00 -0.00 -0.01 -0.01 -0.01 -0.01 -0.01 -0.01 -0.01 -0.01 -0.01 -0.01 -0.01 -0.01 -0.02 -0.02 -0.02 -0.02 -0.02 -0.01 -0.01 -0.01 -0.04 -0.04 -0.04 -0.04 -0.02 -0.02 -0.02 -0.04 -0.07 -0.07 -0.11 -0.14 -0.14 -0.14 -0.13 -0.13 -0.13 -0.13 -0.09 -0.08 -0.08 -0.08 -0.08 -0.10 -0.13 -0.13 -0.14 -0.15 -0.15 -0.15 -0.14 -0.12 -0.12 -0.09 -0.07 -0.08
-0.00 -0.00 -0.00 -0.00 -0.00 -0.00 -0.00 -0.00 -0.00 -0.00 -0.00 -0.00 -0.01 -0.01 -0.01 -0.01 -0.01 -0.01 -0.01 -0.01 -0.02 -0.02 -0.02 -0.02 -0.02 -0.02 -0.02 -0.03 -0.05 -0.05 -0.05 -0.05 -0.07 -0.07 -0.07 -0.06 -0.05 -0.04 -0.04 -0.03 -0.05 -0.07 -0.07 -0.10 -0.11 -0.11 -0.13 -0.13 -0.11 -0.11 -0.07 -0.07 -0.07 -0.08 -0.08 -0.09 -0.09 -0.11 -0.11 -0.12 -0.14 -0.10 -0.10 -0.08 -0.07 -0.07 -0.06 -0.06 -0.07
-0.00 -0.00 -0.00 -0.00 -0.00 -0.00 -0.00 -0.00 -0.00 -0.00 -0.00 -0.01 -0.01 -0.01 -0.01 -0.01 -0.01 -0.01 -0.01 -0.01 -0.01 -0.02 -0.02 -0.02 -0.02 -0.02 -0.02 -0.01 -0.03 -0.03 -0.05 -0.02 -0.03 -0.03 -0.03 -0.02 -0.02 -0.02 -0.02 -0.03 -0.05 -0.06 -0.06 -0.07 -0.09 -0.09 -0.09 -0.09 -0.08 -0.08 -0.04 -0.04 -0.04 -0.05 -0.05 -0.07 -0.07 -0.08 -0.08 -0.10 -0.11 -0.06 -0.06 -0.07 -0.09 -0.09 -0.09 -0.08 -0.09
-0.00 -0.00 -0.00 -0.00 -0.00 -0.00 -0.00 -0.00 -0.00 -0.00 -0.01 -0.01 -0.01 -0.01 -0.01 -0.01 -0.01 -0.01 -0.01 -0.01 -0.01 -0.01 -0.01 -0.01 -0.01 -0.01 -0.01 -0.01 -0.01 -0.01 -0.01 -0.01 -0.02 -0.02 -0.02 -0.01 -0.01 -0.01 -0.01 -0.02 -0.03 -0.04 -0.04 -0.05 -0.06 -0.06 -0.06 -0.05 -0.05 -0.05 -0.08 -0.09 -0.10 -0.10 -0.10 -0.12 -0.15 -0.17 -0.17 -0.16 -0.13 -0.02 -0.02 -0.03 -0.03 -0.03 -0.04 -0.04 -0.04
-0.00 -0.00 -0.00 -0.00 -0.00 -0.00 -0.00 -0.00 -0.00 -0.00 -0.00 -0.01 -0.01 -0.01 -0.01 -0.01 -0.01 -0.01 -0.01 -0.01 -0.01 -0.01 -0.01 -0.01 -0.01 -0.01 -0.01 -0.01 -0.01 -0.01 -0.01 -0.01 -0.01 -0.01 -0.01 -0.01 -0.01 -0.01 -0.01 -0.01 -0.02 -0.03 -0.03 -0.05 -0.06 -0.06 -0.06 -0.07 -0.04 -0.04 -0.06 -0.09 -0.10 -0.11 -0.11 -0.09 -0.05 -0.03 -0.03 -0.02 -0.02 -0.02 -0.02 -0.02 -0.02 -0.02 -0.02 -0.02 -0.03
-0.00 -0.00 -0.00 -0.00 -0.00 -0.00 -0.00 -0.00 -0.00 -0.00 -0.00 -0.00 -0.01 -0.01 -0.01 -0.01 -0.01 -0.01 -0.01 -0.01 -0.01 -0.01 -0.01 -0.01 -0.01 -0.01 -0.01 -0.01 -0.01 -0.01 -0.01 -0.01 -0.01 -0.01 -0.01 -0.01 -0.01 -0.01 -0.01 -0.01 -0.02 -0.03 -0.03 -0.03 -0.03 -0.03 -0.03 -0.03 -0.02 -0.02 -0.02 -0.02 -0.02 -0.01 -0.01 -0.01 -0.01 -0.01 -0.01 -0.02 -0.02 -0.02 -0.02 -0.02 -0.03 -0.03 -0.03 -0.03 -0.03
-0.00 -0.00 -0.00 -0.00 -0.00 -0.00 -0.00 -0.00 -0.00 -0.00 -0.00 -0.01 -0.01 -0.01 -0.01 -0.01 -0.01 -0.01 -0.01 -0.01 -0.01 -0.01 -0.01 -0.01 -0.01 -0.01 -0.01 -0.01 -0.01 -0.01 -0.01 -0.01 -0.01 -0.01 -0.01 -0.01 -0.01 -0.02 -0.02 -0.02 -0.02 -0.02 -0.02 -0.03 -0.03 -0.03 -0.02 -0.10 -0.08 -0.08 -0.07 -0.05 -0.03 -0.01 -0.01 -0.01 -0.01 -0.01 -0.01 -0.01 -0.02 -0.02 -0.02 -0.02 -0.03 -0.03 -0.03 -0.03 -0.03
-0.01 -0.00 -0.00 -0.00 -0.00 -0.00 -0.00 -0.00 -0.01 -0.01 -0.01 -0.00 -0.00 -0.00 -0.00 -0.00 -0.01 -0.01 -0.01 -0.01 -0.01 -0.01 -0.01 -0.01 -0.01 -0.01 -0.01 -0.01 -0.01 -0.01 -0.00 -0.01 -0.01 -0.01 -0.01 -0.02 -0.02 -0.03 -0.03 -0.05 -0.07 -0.10 -0.10 -0.11 -0.10 -0.10 -0.10 -0.00 -0.00 -0.00 -0.00 -0.01 -0.01 -0.01 -0.01 -0.01 -0.01 -0.01 -0.01 -0.01 -0.02 -0.02 -0.02 -0.02 -0.02 -0.02 -0.02 -0.02 -0.03
-0.01 -0.01 -0.01 -0.01 -0.00 -0.00 -0.00 -0.01 -0.01 -0.01 -0.00 -0.00 -0.00 -0.00 -0.00 -0.01 -0.01 -0.01 -0.01 -0.01 -0.01 -0.01 -0.01 -0.01 -0.01 -0.01 -0.01 -0.01 -0.01 -0.01 -0.01 -0.01 -0.01 -0.01 -0.01 -0.02 -0.02 -0.02 -0.02 -0.02 -0.03 -0.03 -0.03 -0.03 -0.01 -0.01 -0.01 -0.00 0.00 0.00 0.00 -0.01 -0.01 -0.01 -0.01 -0.02 -0.02 -0.02 -0.02 -0.01 -0.02 -0.02 -0.02 -0.02 -0.02 -0.02 -0.02 -0.02 -0.02
-0.01 -0.01 -0.01 -0.01 -0.01 -0.01 -0.01 -0.01 -0.01 -0.01 -0.01 -0.01 -0.01 -0.01 -0.01 -0.01 -0.01 -0.01 -0.01 -0.01 -0.01 -0.00 -0.00 -0.00 -0.01 -0.01 -0.01 -0.00 -0.00 -0.00 -0.01 -0.01 -0.01 -0.02 -0.02 -0.02 -0.02 -0.02 -0.02 -0.02 -0.03 -0.03 -0.03 -0.03 -0.02 -0.02 -0.00 -0.00 0.00 0.00 -0.00 -0.01 -0.01 -0.02 -0.02 -0.01 -0.01 -0.01 -0.01 -0.02 -0.02 -0.02 -0.02 -0.02 -0.02 -0.02 -0.02 -0.02 -0.03
-0.01 -0.01 -0.01 -0.01 -0.02 -0.02 -0.02 -0.01 -0.01 -0.01 -0.01 -0.01 -0.01 -0.01 -0.01 -0.02 -0.01 -0.01 -0.01 -0.01 -0.00 0.00 0.00 -0.00 -0.00 -0.00 -0.00 -0.00 -0.00 -0.00 -0.01 -0.01 -0.01 -0.02 -0.02 -0.02 -0.02 -0.02 -0.02 -0.03 -0.03 -0.02 -0.02 -0.02 -0.01 -0.01 -0.00 0.01 0.01 0.01 0.01 -0.00 -0.01 -0.01 -0.01 -0.01 -0.01 -0.01 -0.01 -0.03 -0.03 -0.03 -0.03 -0.04 -0.04 -0.04 -0.04 -0.04 -0.07
-0.01 -0.01 -0.01 -0.02 -0.02 -0.02 -0.02 -0.02 -0.02 -0.02 -0.02 -0.02 -0.02 -0.02 -0.02 -0.02 -0.01 -0.01 -0.01 -0.00 -0.00 0.00 0.00 0.00 -0.00 -0.00 -0.00 -0.00 -0.00 -0.00 -0.01 -0.01 -0.01 -0.01 -0.01 -0.01 -0.01 -0.01 -0.01 -0.02 -0.02 -0.02 -0.02 -0.02 0.00 0.00 0.01 0.02 0.02 0.02 0.01 -0.00 -0.01 -0.01 -0.01 -0.02 -0.02 -0.10 -0.10 -0.10 -0.11 -0.10 -0.10 -0.09 -0.09 -0.09 -0.08 -0.07 -0.10
-0.01 -0.02 -0.02 -0.02 -0.02 -0.02 -0.02 -0.02 -0.02 -0.02 -0.02 -0.02 -0.02 -0.02 -0.02 -0.02 -0.02 -0.01 -0.01 -0.01 -0.01 -0.01 -0.01 -0.01 -0.01 -0.01 -0.01 -0.01 -0.01 -0.01 -0.01 -0.01 -0.00 -0.00 -0.00 -0.00 -0.01 -0.01 -0.01 -0.02 -0.03 -0.02 -0.02 0.01 0.01 0.01 0.02 0.03 0.02 0.02 0.00 -0.01 -0.03 -0.05 -0.05 -0.07 -0.08 -0.13 -0.13 -0.14 -0.14 -0.14 -0.14 -0.13 -0.12 -0.12 -0.12 -0.11 -0.05
-0.01 -0.02 -0.02 -0.02 -0.02 -0.02 -0.02 -0.01 -0.01 -0.01 -0.02 -0.02 -0.02 -0.02 -0.02 -0.01 -0.01 -0.01 -0.01 -0.00 -0.00 -0.01 -0.01 -0.01 -0.01 -0.01 -0.01 -0.01 -0.01 -0.01 -0.00 0.00 0.00 0.00 0.00 0.00 -0.00 -0.01 -0.01 -0.01 -0.02 -0.01 -0.01 0.02 0.02 0.02 0.02 0.02 0.01 0.01 -0.02 -0.05 -0.08 -0.10 -0.10 -0.11 -0.12 -0.09 -0.09 -0.09 -0.08 -0.08 -0.08 -0.08 -0.08 -0.08 -0.07 -0.06 -0.00
-0.01 -0.02 -0.02 -0.02 -0.02 -0.02 -0.01 -0.01 -0.01 -0.01 -0.02 -0.02 -0.01 -0.01 -0.01 -0.01 -0.01 -0.00 -0.00 0.01 0.01 0.00 0.00 0.00 -0.00 -0.00 -0.00 -0.01 -0.00 -0.00 0.00 0.01 0.01 0.01 0.01 0.01 0.01 0.00 0.00 0.00 -0.00 0.02 0.02 0.02 0.02 0.02 0.02 0.01 0.00 0.00 -0.02 -0.07 -0.08 -0.09 -0.09 -0.09 -0.05 -0.03 -0.03 -0.02 -0.01 -0.01 -0.01 -0.01 -0.01 -0.01 -0.01 0.00 0.00
-0.01 -0.01 -0.01 -0.01 -0.01 -0.01 -0.01 -0.01 -0.01 -0.01 -0.01 -0.01 -0.01 -0.01 -0.01 -0.01 -0.01 0.01 0.01 0.01 0.01 0.01 0.01 0.01 0.01 0.01 0.01 0.01 0.01 0.01 0.01 0.01 0.01 0.01 0.01 0.02 0.02 0.01 0.01 0.01 0.01 0.03 0.03 0.02 0.02 0.02 0.01 -0.01 -0.03 -0.03 -0.04 -0.05 -0.06 -0.06 -0.06 -0.05 -0.00 0.00 0.00 0.00 0.00 0.00 0.00 0.00 0.00 0.00 0.00 0.00 0.00
-0.01 -0.01 -0.01 -0.01 -0.01 -0.01 -0.01 -0.01 -0.01 -0.01 -0.01 -0.01 -0.01 -0.01 -0.01 -0.01 -0.00 0.01 0.01 0.01 0.01 0.01 0.01 0.02 0.02 0.02 0.02 0.02 0.01 0.01 0.01 0.01 0.01 0.01 0.01 0.02 0.02 0.01 0.01 0.01 0.01 0.02 0.02 0.02 0.00 0.00 -0.01 -0.02 -0.03 -0.03 -0.04 -0.04 -0.03 -0.03 -0.03 0.01 0.01 0.01 0.01 0.01 0.00 0.00 0.00 0.00 0.00 0.00 0.00 0.00 0.00
-0.01 -0.01 -0.01 -0.01 -0.01 -0.01 -0.00 -0.01 -0.01 -0.01 -0.01 -0.01 -0.00 -0.00 -0.00 -0.00 -0.00 0.00 0.00 0.01 0.01 0.02 0.02 0.03 0.03 0.02 0.02 0.01 0.01 0.01 0.01 0.02 0.02 0.02 0.02 0.02 0.02 0.01 0.01 0.00 -0.00 -0.00 -0.00 -0.00 -0.00 -0.00 -0.01 -0.01 -0.01 -0.01 -0.01 -0.00 0.00 0.01 0.01 0.01 0.01 0.01 0.01 0.01 0.00 0.00 0.00 0.00 0.00 0.00 0.00 0.00 0.00
-0.00 -0.00 -0.00 -0.01 -0.00 -0.00 -0.00 -0.01 -0.01 -0.01 -0.01 -0.00 0.00 -0.00 -0.00 -0.00 -0.00 0.00 0.00 0.01 0.01 0.02 0.02 0.02 0.01 0.01 0.01 0.01 0.01 0.01 0.01 0.02 0.02 0.02 0.02 0.02 0.02 0.01 0.01 -0.01 -0.01 -0.00 -0.00 0.01 0.01 0.01 0.01 0.00 0.01 0.01 0.01 0.01 0.01 0.01 0.01 0.01 0.01 0.01 0.01 0.00 0.00 0.00 0.00 0.00 0.00 0.00 0.00 0.00 0.00
-0.00 -0.00 -0.00 -0.00 -0.00 -0.00 -0.01 -0.01 -0.00 -0.00 -0.01 -0.00 -0.00 -0.00 -0.00 -0.00 0.00 0.00 0.00 0.01 0.01 0.01 0.01 0.01 0.01 0.01 0.01 0.01 0.01 0.01 0.01 0.01 0.02 0.01 0.01 0.01 -0.00 -0.00 -0.00 -0.00 -0.00 0.01 0.01 0.02 0.02 0.02 0.02 0.01 0.01 0.01 0.01 0.01 0.01 0.01 0.01 0.01 0.00 0.00 0.00 0.00 0.00 0.00 0.00 0.00 0.00 0.00 0.00 0.00 0.00